DateTimeUTC,F1_A11,F1_S11,BsB_S11,BsG_S11,BsR_S11,BbsB_S11,BbsG_S11,BbsR_S11,BaB_A11,BaG_A11,BaR_A11,Tu_S11,T_S11,Uu_S11,U_S11,P_S11,T1_A11
2021-01-18T16:00:00Z,00000200,21000000,,,,,,,-000.04,-000.61,-000.11,16.4,23.8,,00.0,0645.0,30.9
2021-01-18T16:01:00Z,00000200,21000000,,,,,,,0000.00,0000.38,0000.24,16.3,23.8,,00.0,0645.0,30.9
2021-01-18T16:02:00Z,00000200,21000000,,,,,,,-000.20,-000.60,-000.41,16.3,23.8,,00.0,0645.0,30.9
2021-01-18T16:03:00Z,00000200,61000000,,,,,,,0010.80,0009.84,0007.50,16.3,23.8,,00.0,0645.0,30.9
2021-01-18T16:04:00Z,00000200,41000000,0000.59,0000.37,0000.43,-000.19,0000.04,0000.09,0011.71,0010.66,0007.53,16.5,23.5,,00.0,0645.9,30.9
2021-01-18T16:05:00Z,00000200,01000000,0001.16,0000.58,0000.47,-000.00,0000.21,0000.12,0013.40,0011.88,0009.42,16.6,23.5,,00.0,0645.9,30.9
2021-01-18T16:06:00Z,00000200,01000000,0001.27,0001.30,0000.63,0000.73,0000.65,0000.08,0023.28,0021.21,0015.94,16.7,23.5,,00.0,0646.0,30.9
2021-01-18T16:07:00Z,00000200,01000000,0001.63,0001.17,0000.40,0000.06,0000.47,0000.19,0025.11,0022.98,0017.07,16.7,23.5,,00.0,0646.0,30.9
2021-01-18T16:08:00Z,00000200,01000000,0000.66,0000.73,0000.12,-000.17,0000.26,0000.18,0020.01,0017.70,0013.47,16.8,23.5,,00.0,0646.0,30.9
2021-01-18T16:09:00Z,00000200,01000000,0001.02,0000.35,0000.24,0000.01,-000.00,0000.27,0007.02,0006.14,0004.45,16.9,23.5,,00.0,0646.0,30.9
2021-01-18T16:10:00Z,00000200,01000000,0001.43,0000.68,0000.37,0000.76,0000.13,-000.11,0018.86,0016.85,0013.13,16.9,23.5,,00.0,0646.0,30.9
2021-01-18T16:11:00Z,00000200,01000000,0000.63,0000.38,0000.47,-000.43,0000.25,0000.33,0019.54,0017.76,0013.27,16.9,23.5,,00.0,0646.0,30.9
2021-01-18T16:12:00Z,00000200,01000000,0000.81,0000.55,0000.59,0000.18,0000.10,0000.41,0024.01,0021.74,0016.29,16.8,23.5,,00.0,0646.0,30.9
2021-01-18T16:13:00Z,00000200,01000000,0000.50,0000.53,0000.42,0000.16,0000.16,0000.40,0013.41,0011.86,0008.79,16.8,23.5,,00.0,0646.0,30.9
2021-01-18T16:14:00Z,00000200,01000000,0001.55,0000.76,0000.36,0000.14,0000.20,-000.14,0019.58,0017.81,0012.94,16.8,23.5,,00.0,0646.0,30.9
2021-01-18T16:15:00Z,00000200,01000000,0000.86,0000.91,0000.59,0000.91,0000.31,0000.23,0024.25,0021.78,0016.47,16.7,23.5,,00.0,0646.0,30.9
2021-01-18T16:16:00Z,00000200,01000000,0000.56,0000.58,0000.25,0000.39,0000.20,0000.22,0019.49,0017.10,0013.27,16.7,23.5,,00.0,0646.0,30.9
2021-01-18T16:17:00Z,00000200,01000000,0001.08,0000.89,0000.61,0000.14,0000.38,0000.25,0026.75,0023.87,0018.20,16.6,23.4,,00.0,0646.0,30.9
2021-01-18T16:18:00Z,00000200,01000000,0000.60,0000.97,0000.72,0000.23,0000.23,0000.04,0030.77,0028.04,0020.75,16.6,23.4,,00.0,0646.0,30.9
2021-01-18T16:19:00Z,00000200,01000000,0001.19,0001.07,0000.24,0000.14,0000.26,0000.19,0030.10,0026.75,0020.48,16.6,23.4,,00.0,0646.0,30.9
2021-01-18T16:20:00Z,00000200,01000000,0001.02,0000.87,0000.48,0000.10,0000.24,0000.43,0022.67,0020.49,0015.37,16.7,23.4,,00.0,0646.0,30.9
2021-01-18T16:21:00Z,00000200,01000000,0001.75,0000.92,0000.28,0000.12,0000.34,0000.16,0028.68,0026.22,0019.60,16.7,23.4,,00.0,0646.0,30.9
2021-01-18T16:22:00Z,00000200,01000000,0001.51,0000.54,0000.34,0000.46,0000.43,0000.01,0021.20,0019.16,0014.64,16.8,23.4,,00.0,0646.0,30.9
2021-01-18T16:23:00Z,00000200,01000000,0001.58,0001.13,0000.67,0000.12,0000.36,0000.06,0028.14,0024.97,0018.94,16.8,23.5,,00.0,0646.0,30.9
2021-01-18T16:24:00Z,00000200,01000000,0002.39,0001.23,0000.85,0001.07,0000.45,0000.40,0044.77,0040.79,0030.78,16.8,23.5,,00.0,0646.0,30.9
2021-01-18T16:25:00Z,00000200,01000000,0001.08,0000.81,0000.36,0000.56,0000.36,0000.03,0029.02,0025.77,0019.58,16.8,23.5,,00.0,0646.0,30.9
2021-01-18T16:26:00Z,00000200,01000000,0000.23,0000.84,0000.16,0000.37,0000.22,0000.10,0017.54,0016.04,0012.06,16.8,23.4,,00.0,0646.0,30.9
2021-01-18T16:27:00Z,00000200,01000000,0000.40,0000.35,0000.12,-000.21,0000.15,0000.21,0004.29,0003.47,0002.81,16.7,23.4,,00.0,0646.0,30.9
2021-01-18T16:28:00Z,00000200,01000000,-000.40,-000.25,0000.14,-000.05,0000.09,0000.22,0002.60,0002.58,0001.52,16.7,23.4,,00.0,0646.0,30.9
2021-01-18T16:29:00Z,00000200,01000000,0000.26,0000.26,0000.12,-000.09,0000.11,0000.06,0001.24,0001.15,0000.95,16.6,23.4,,00.0,0646.0,30.9
2021-01-18T16:30:00Z,00000200,01000000,0000.60,0000.14,-000.05,-000.23,-000.10,0000.05,0002.60,0002.01,0001.72,16.6,23.4,,00.0,0646.0,30.9
2021-01-18T16:31:00Z,00000200,01000000,0000.88,0000.05,0000.28,0000.35,0000.10,0000.07,0002.10,0002.10,0001.28,16.5,23.3,,00.0,0646.0,30.8
2021-01-18T16:32:00Z,00000200,01000000,0000.56,-000.02,0000.30,-000.12,0000.13,-000.01,0000.46,0000.61,0000.26,16.5,23.3,,00.0,0646.0,30.8
2021-01-18T16:33:00Z,00000200,01000000,0000.57,0000.13,0000.12,-000.22,0000.15,0000.08,0000.85,0000.67,0000.71,16.5,23.2,,00.0,0646.0,30.8
2021-01-18T16:34:00Z,00000200,01000000,0000.04,0000.03,-000.19,-000.14,-000.12,0000.15,0000.57,0000.55,0000.44,16.5,23.3,,00.0,0646.1,30.8
2021-01-18T16:35:00Z,00000200,01000000,0000.00,0000.33,-000.24,0000.06,0000.20,0000.00,0000.56,0000.58,0000.43,16.5,23.3,,00.0,0646.1,30.8
2021-01-18T16:36:00Z,00000200,01000000,0000.79,0000.08,0000.28,-000.74,0000.07,0000.13,0003.63,0003.01,0002.29,16.6,23.3,,00.0,0646.1,30.9
2021-01-18T16:37:00Z,00000200,01000000,0000.56,0000.55,0000.16,-000.21,0000.10,0000.00,0009.23,0008.37,0006.29,16.6,23.3,,00.0,0646.1,30.9
2021-01-18T16:38:00Z,00000200,01000000,0000.53,0000.45,0000.28,0000.09,0000.45,0000.16,0012.07,0010.61,0008.09,16.7,23.3,,00.0,0646.1,30.9
2021-01-18T16:39:00Z,00000200,01000000,0001.33,0001.11,0000.70,-000.01,0000.23,0000.34,0032.46,0029.34,0022.23,16.7,23.3,,00.0,0646.1,30.9
2021-01-18T16:40:00Z,00000200,01000000,0000.48,0000.30,0000.44,-000.01,0000.20,0000.18,0011.22,0010.10,0007.31,16.7,23.3,,00.0,0646.1,30.9
2021-01-18T16:41:00Z,00000200,01000000,0000.39,0000.42,0000.26,0000.03,0000.11,0000.14,0001.94,0001.84,0001.43,16.7,23.3,,00.0,0646.1,30.9
2021-01-18T16:42:00Z,00000200,01000000,-000.58,-000.11,0000.05,-000.11,0000.01,0000.14,0000.55,0000.74,0000.80,16.6,23.3,,00.0,0646.1,30.9
2021-01-18T16:43:00Z,00000200,01000000,-000.36,0000.43,0000.22,0000.34,0000.15,0000.46,0000.47,0000.36,-000.02,16.6,23.3,,00.0,0646.1,30.9
2021-01-18T16:44:00Z,00000200,01000000,0000.50,-000.19,0000.08,0000.15,0000.22,0000.29,0000.64,0000.17,0000.36,16.5,23.3,,00.0,0646.1,30.8
2021-01-18T16:45:00Z,00000200,01000000,0000.47,0000.26,0000.08,-000.70,0000.37,0000.16,0000.06,0000.10,0000.26,16.5,23.2,,00.0,0646.1,30.8
2021-01-18T16:46:00Z,00000200,01000000,0000.41,0000.10,0000.31,-000.69,0000.07,0000.13,0000.46,0000.62,0000.08,16.4,23.2,,00.0,0646.1,30.8
2021-01-18T16:47:00Z,00000200,01000000,-000.10,0000.29,0000.03,-000.70,-000.11,0000.18,0000.04,0000.06,-000.12,16.4,23.2,,00.0,0646.1,30.8
2021-01-18T16:48:00Z,00000200,01000000,0000.73,0000.21,0000.10,0000.13,-000.15,0000.08,0006.68,0005.89,0004.65,16.3,23.2,,00.0,0646.1,30.8
2021-01-18T16:49:00Z,00000200,01000000,0001.42,0000.83,0000.48,0000.01,0000.46,0000.16,0025.08,0022.19,0016.88,16.4,23.2,,00.0,0646.1,30.8
2021-01-18T16:50:00Z,00000200,01000000,0000.76,0000.55,0000.16,-000.33,0000.39,0000.24,0021.88,0019.74,0014.99,16.4,23.2,,00.0,0646.2,30.8
2021-01-18T16:51:00Z,00000200,01000000,0000.89,0000.84,0000.28,-000.19,0000.25,-000.04,0017.50,0015.91,0012.16,16.5,23.2,,00.0,0646.1,30.8
2021-01-18T16:52:00Z,00000200,01000000,0000.39,-000.04,0000.38,-000.25,-000.02,0000.41,0001.68,0001.72,0000.73,16.5,23.2,,00.0,0646.2,30.9
2021-01-18T16:53:00Z,00000200,01000000,0000.52,0000.39,0000.36,-000.44,0000.05,0000.34,0011.61,0009.91,0007.52,16.6,23.2,,00.0,0646.2,30.9
2021-01-18T16:54:00Z,00000200,01000000,0001.73,0000.71,0000.12,0000.31,0000.29,0000.03,0022.14,0020.27,0015.28,16.6,23.2,,00.0,0646.2,30.9
2021-01-18T16:55:00Z,00000200,01000000,0001.15,0000.66,0000.56,-000.32,0000.16,0000.36,0009.22,0008.48,0006.49,16.6,23.2,,00.0,0646.2,30.9
2021-01-18T16:56:00Z,00000200,01000000,0000.21,0000.01,0000.07,0000.25,0000.14,0000.42,0005.11,0004.14,0003.36,16.6,23.2,,00.0,0646.2,30.9
2021-01-18T16:57:00Z,00000200,41000000,,,,,,,0002.01,0002.10,0001.39,16.6,23.2,,00.0,0646.1,30.9
2021-01-18T16:58:00Z,00000200,61000000,,,,,,,0000.05,-000.21,-000.12,16.1,23.4,,00.0,0645.2,30.9
2021-01-18T16:59:00Z,00000200,21000000,,,,,,,0000.10,0000.29,-000.27,16.0,23.5,,00.0,0645.2,30.9
